Weather in Ust-Chernaya

Russia / Perm Krai     60°28′45″N   52°39′35″E
temp.,
°C
wind,
m/s
gust,
m/s
humid.,
%
clouds,
%
prec.,
mm/h
press.,
hPa
HPBL,
m
26 february, fri
fri2623:00−23sse38984 0.0 1023145
02:00−25se259812 0.0 102393
05:00−27sse379523 0.0 1023139
08:00−27sse379560 0.0 1022162
11:00−23sse379270 0.0 1021266
14:00−19sse479097 0.0 1019417
17:00−17sse499098 0.0 1017574
20:00−19se41194100 0.0 1015506
27 february, sat
sat2723:00−21se41295100 0.1 1014421
02:00−21se41195100 0.0 1012406
05:00−21ese41196100 0.0 1012409
08:00−21ese41196100 0.0 1010409
11:00−18ese41091100 0.0 1010455
14:00−13e488694 0.0 1010559
17:00−13e488688 0.0 1010568
20:00−17ene369678 0.0 1011136
28 february, sun
sun2823:00−17e379884 0.1 1012162
02:00−20e3798100 0.1 1013167
05:00−24ene239660 0.1 101553
08:00−25ene23940 0.0 101534
11:00−20ene24900 0.0 1016213
14:00−14ne23810 0.0 1015409
17:00−12nne23849 0.0 1016471
20:00−18nne229514 0.0 101720
1 march, mon
mon123:00−20nne12977 0.0 101820
02:00−21nnw11970 0.0 101920
05:00−21wnw12960 0.0 102020
08:00−21wsw129639 0.0 102020
11:00−17wsw249222 0.0 1021196
14:00−12sw368826 0.0 1019383
17:00−10sw489063 0.0 1017484
20:00−11ssw41194100 0.0 1014388
2 march, tue
tue223:00−11sw51293100 0.1 1011484
02:00−11sw61393100 0.4 1007569
05:00−9sw51292100 1.6 1003624
08:00−8sw51292100 0.4 1001559
11:00−5sw41092100 0.4 1000409
14:00−1wsw5891100 0.1 999685
17:000wsw4985100 0.3 9981058
20:00−4wsw3109388 0.1 998355